Date String (YYYY-MM-DD hh:mm:ss) UTC,Instrument flags,Ambient pressure (hPa),Sample flow (lpm),Bypass flow (lpm),Sample temperature (°C),Ambient temperature (°C),ASC tube jacket temperature (°C),LED temperature (°C),Box temperature (°C),Sample RH (%),Span deviation,Mass concentration (μg/m³),Mass concentration (μg/m³),Mass concentration (μg/m³)
DateTimeUTC,F1_M11,P_M11,Q1_M11,Q2_M11,T1_M11,T2_M11,T3_M11,T4_M11,T5_M11,U1_M11,ZSPAN_M11,X0_M11,X2_M11,X1_M11
2022-08-06 17:00:00,,0829.4,5.01,0.00,31.6,28.4,00.0,39.4,32.2,33.7,0001.5,0017.80,0007.99,0006.65
2022-08-06 17:01:00,,0829.4,5.00,0.00,31.6,28.1,00.0,39.5,32.1,33.7,0001.9,0018.60,0008.04,0006.66
2022-08-06 17:02:00,,0829.3,5.01,0.00,31.6,27.6,00.0,39.5,32.0,33.9,0001.9,0018.56,0008.05,0006.68
2022-08-06 17:03:00,,0829.3,4.98,0.00,31.5,27.4,00.0,39.5,31.9,34.1,0002.2,0017.63,0008.10,0006.70
2022-08-06 17:04:00,,0829.3,5.01,0.00,31.4,27.4,00.0,39.5,31.8,34.6,0002.3,0016.90,0008.13,0006.73
2022-08-06 17:05:00,,0829.3,4.99,0.00,31.3,27.5,00.0,39.5,31.8,34.8,0002.1,0015.86,0008.16,0006.74
2022-08-06 17:06:00,,0829.2,5.01,0.00,31.2,27.7,00.0,39.5,31.9,35.0,0001.9,0015.77,0008.23,0006.77
2022-08-06 17:07:00,,0829.2,4.99,0.00,31.3,27.9,00.0,39.5,32.0,34.7,0001.9,0015.64,0008.29,0006.83
2022-08-06 17:08:00,,0829.2,5.01,0.00,31.3,28.1,00.0,39.5,32.0,34.6,0001.7,0016.28,0008.35,0006.87
2022-08-06 17:09:00,,0829.2,4.99,0.00,31.3,28.3,00.0,39.5,32.0,34.7,0001.5,0017.27,0008.42,0006.89
2022-08-06 17:10:00,,0829.2,4.99,0.00,31.3,28.3,00.0,39.5,32.0,34.6,0001.5,0017.08,0008.38,0006.91
2022-08-06 17:11:00,,0829.3,5.00,0.00,31.3,27.9,00.0,39.5,31.9,34.3,0001.1,0017.00,0008.33,0006.91
2022-08-06 17:12:00,,0829.3,5.00,0.00,31.2,27.5,00.0,39.4,31.9,34.5,0001.6,0016.71,0008.29,0006.91
2022-08-06 17:13:00,,0829.2,5.00,0.00,31.1,27.4,00.0,39.4,31.8,34.7,0001.6,0015.96,0008.26,0006.91
2022-08-06 17:14:00,,0829.2,4.99,0.00,31.0,27.5,00.0,39.4,31.7,35.2,0001.6,0016.28,0008.22,0006.89
2022-08-06 17:15:00,,0829.2,5.01,0.00,31.1,27.6,00.0,39.4,31.8,34.7,0001.4,0016.20,0008.17,0006.88
2022-08-06 17:16:00,,0829.2,5.00,0.00,31.2,27.8,00.0,39.3,32.0,34.4,0001.1,0016.02,0008.12,0006.86
2022-08-06 17:17:00,,0829.2,5.01,0.00,31.2,27.9,00.0,39.4,32.0,34.3,0001.0,0016.28,0008.07,0006.84
2022-08-06 17:18:00,,0829.2,4.99,0.00,31.3,28.1,00.0,39.4,32.0,34.3,0001.0,0016.66,0008.01,0006.80
2022-08-06 17:19:00,,0829.3,4.99,0.00,31.3,28.3,00.0,39.4,32.0,34.4,0001.2,0016.20,0007.96,0006.77
2022-08-06 17:20:00,,0829.3,5.01,0.00,31.3,28.2,00.0,39.4,32.0,34.8,0001.1,0015.29,0007.96,0006.76
2022-08-06 17:21:00,,0829.3,5.00,0.00,31.2,27.6,00.0,39.4,31.9,34.7,0001.2,0015.12,0007.95,0006.75
2022-08-06 17:22:00,,0829.3,5.01,0.00,31.1,27.4,00.0,39.4,31.8,34.7,0001.6,0015.00,0007.94,0006.75
2022-08-06 17:23:00,,0829.2,4.99,0.00,31.0,27.4,00.0,39.3,31.7,34.9,0000.7,0015.03,0007.93,0006.75
2022-08-06 17:24:00,,0829.2,5.01,0.00,31.0,27.5,00.0,39.3,31.7,35.6,0000.0,0015.31,0007.95,0006.73
2022-08-06 17:25:00,,0829.3,5.00,0.00,31.2,27.7,00.0,39.3,31.9,35.0,0000.0,0014.71,0007.90,0006.69
2022-08-06 17:26:00,,0829.3,4.99,0.00,31.5,27.8,00.0,39.3,32.1,34.1,0000.0,0014.92,0007.86,0006.66
2022-08-06 17:27:00,,0829.3,4.99,0.00,31.6,28.0,00.0,39.3,32.1,33.7,0000.0,0014.67,0007.78,0006.65
2022-08-06 17:28:00,,0829.3,5.01,0.00,31.6,28.2,00.0,39.4,32.1,33.7,0000.0,0014.88,0007.79,0006.65
2022-08-06 17:29:00,,0829.3,5.01,0.00,31.7,28.1,00.0,39.4,32.1,33.7,0000.0,0014.54,0007.78,0006.65
2022-08-06 17:30:00,,0829.2,4.99,0.00,31.6,27.6,00.0,39.4,31.9,33.8,0000.0,0014.38,0007.75,0006.65
2022-08-06 17:31:00,,0829.2,5.01,0.00,31.6,27.3,00.0,39.4,31.9,34.1,0000.0,0013.64,0007.68,0006.65
2022-08-06 17:32:00,,0829.2,5.01,0.00,31.5,27.3,00.0,39.4,31.8,34.2,0000.6,0014.17,0007.65,0006.64
2022-08-06 17:33:00,,0829.3,4.99,0.00,31.3,27.4,00.0,39.4,31.7,34.4,0000.3,0015.69,0007.65,0006.64
2022-08-06 17:34:00,,0829.2,5.01,0.00,31.2,27.6,00.0,39.4,31.7,34.6,0000.1,0016.22,0007.69,0006.65
2022-08-06 17:35:00,,0829.3,4.99,0.00,31.2,27.8,00.0,39.4,31.8,34.6,0000.1,0015.57,0007.72,0006.66
2022-08-06 17:36:00,,0829.2,4.99,0.00,31.1,28.0,00.0,39.5,31.9,34.9,0000.4,0016.17,0007.76,0006.70
2022-08-06 17:37:00,,0829.2,5.00,0.00,31.1,28.2,00.0,39.5,32.0,34.9,0000.7,0016.45,0007.79,0006.71
2022-08-06 17:38:00,,0829.2,5.00,0.00,31.2,28.3,00.0,39.5,32.0,34.8,0000.7,0016.52,0007.83,0006.73
2022-08-06 17:39:00,,0829.3,5.02,0.00,31.2,28.0,00.0,39.4,32.0,34.5,0000.4,0016.27,0007.87,0006.74
2022-08-06 17:40:00,,0829.2,4.98,0.00,31.2,27.5,00.0,39.4,31.8,34.8,0000.2,0017.71,0007.90,0006.75
2022-08-06 17:41:00,,0829.1,5.01,0.00,31.2,27.3,00.0,39.4,31.8,35.0,-000.1,0019.34,0007.92,0006.75
2022-08-06 17:42:00,,0829.1,5.01,0.00,31.2,27.4,00.0,39.4,31.8,34.8,-000.5,0020.54,0007.93,0006.75
2022-08-06 17:43:00,,0829.1,4.99,0.00,31.2,27.5,00.0,39.3,31.7,34.9,-000.2,0020.58,0007.97,0006.74
2022-08-06 17:44:00,,0829.1,5.02,0.00,31.3,27.7,00.0,39.3,31.9,35.5,0000.1,0019.33,0007.98,0006.72
2022-08-06 17:45:00,,0829.1,5.00,0.00,31.5,27.9,00.0,39.4,32.0,34.6,0000.2,0019.66,0007.96,0006.71
2022-08-06 17:46:00,,0829.1,5.00,0.00,31.6,28.1,00.0,39.4,32.1,34.1,0000.0,0019.63,0007.94,0006.69
2022-08-06 17:47:00,,0829.1,5.00,0.00,31.7,28.2,00.0,39.4,32.1,34.0,0000.0,0019.52,0007.92,0006.68
2022-08-06 17:48:00,,0829.2,5.01,0.00,31.7,28.0,00.0,39.5,32.0,34.2,0000.0,0018.69,0007.88,0006.67
2022-08-06 17:49:00,,0829.2,4.99,0.00,31.7,27.4,00.0,39.5,31.9,34.3,0000.0,0019.39,0007.89,0006.67
2022-08-06 17:50:00,,0829.1,5.00,0.00,31.6,27.3,00.0,39.5,31.8,34.2,0000.0,0019.46,0007.92,0006.68
2022-08-06 17:51:00,,0829.1,5.01,0.00,31.4,27.3,00.0,39.5,31.7,34.4,0000.0,0018.79,0007.90,0006.68
2022-08-06 17:52:00,,0829.2,4.99,0.00,31.3,27.5,00.0,39.5,31.7,34.7,0000.0,0016.30,0007.88,0006.69
2022-08-06 17:53:00,,0829.1,5.00,0.00,31.3,27.6,00.0,39.5,31.8,35.2,0000.0,0015.94,0007.90,0006.70
2022-08-06 17:54:00,,0829.1,5.00,0.00,31.4,27.8,00.0,39.5,32.0,35.1,0000.0,0015.23,0007.90,0006.74
2022-08-06 17:55:00,,0829.1,4.99,0.00,31.5,28.0,00.0,39.5,32.1,34.5,0000.6,0016.94,0007.94,0006.77
2022-08-06 17:56:00,,0829.1,5.02,0.00,31.6,28.2,00.0,39.5,32.2,34.2,0001.5,0016.95,0008.00,0006.81
2022-08-06 17:57:00,,0829.0,5.00,0.00,31.7,28.3,00.0,39.5,32.1,34.3,0001.6,0017.03,0008.03,0006.85
2022-08-06 17:58:00,,0828.9,4.99,0.00,31.7,27.8,00.0,39.5,32.0,34.0,0001.9,0017.80,0008.06,0006.89
2022-08-06 17:59:00,,0828.9,5.01,0.00,31.6,27.4,00.0,39.5,31.9,33.9,0002.0,0018.90,0008.11,0006.92
